Regional Weather Roundup
Issued by NWS

Home | Current Version | Previous Version | Text Only | Print | Product List | Glossary Off
Versions: 1 2 3 4 5 6 7 8 9 10 11 12 13 14 15 16 17 18 19 20 21 22 23 24 25 26 27 28 29 30 31 32 33 34 35 36 37 38 39 40 41 42 43 44 45 46 47 48 49 50

000
ASUS43 KOAX 261702
RWRNE

WEATHER ROUNDUP FOR NEBRASKA
NATIONAL WEATHER SERVICE OMAHA NE
1200 PM CDT THU MAR 26 2015

NOTES: SATELLITE DATA IS BEING USED TO AUGMENT CLOUD COVER ABOVE
       12000 FEET.
       "FAIR" INDICATES FEW OR NO CLOUDS BELOW 12,000 FEET WITH NO
       SIGNIFICANT WEATHER AND/OR OBSTRUCTIONS TO VISIBILITY.

  * THESE STATIONS DO NOT REPORT WEATHER SUCH AS RAIN...SNOW OR FOG.

NEZ001>004-019>022-054>056-261800-
NEBRASKA PANHANDLE

CITY           SKY/WX    TMP DP  RH WIND       PRES   REMARKS
SCOTTSBLUFF    CLOUDY    48  27  44 NW17      30.16S
ALLIANCE       CLOUDY    50  28  42 NW26      30.12R
CHADRON        CLOUDY    48  31  51 NW18G28   30.13S
KIMBALL        CLOUDY    48  21  34 NW22G29   30.15S
SIDNEY         CLOUDY    51  23  33 NW28G36   30.14S
$$

NEZ057>060-069>072-079>082-261800-
SOUTHWEST NEBRASKA

CITY           SKY/WX    TMP DP  RH WIND       PRES   REMARKS
NORTH PLATTE   CLOUDY    48  26  42 SW9       30.09F
IMPERIAL         N/A     54  25  32 NW22      30.12F
MCCOOK         MOSUNNY   50  30  46 SW10      30.14F
$$

NEZ005>010-023>029-035>040-094-261800-
NORTH CENTRAL NEBRASKA

CITY           SKY/WX    TMP DP  RH WIND       PRES   REMARKS
VALENTINE      CLOUDY    39  27  62 S3        30.07F
BROKEN BOW     CLOUDY    40  26  57 S10       30.11F WCI  33
ORD            CLOUDY    41  23  48 S8        30.13F
$$

NEZ041-046>049-061>064-073>077-083>087-261800-
SOUTH CENTRAL NEBRASKA

CITY           SKY/WX    TMP DP  RH WIND       PRES   REMARKS
GRAND ISLAND   PTSUNNY   44  24  45 SW5       30.18F
HASTINGS       PTSUNNY   44  25  47 SW6       30.17F
HEBRON         SUNNY     44  25  47 W5        30.22F
KEARNEY *      CLOUDY    45  25  45 S9        30.17F
$$

NEZ011>018-030>034-042>045-261800-
NORTHEAST NEBRASKA

CITY           SKY/WX    TMP DP  RH WIND       PRES   REMARKS
NORFOLK        MOSUNNY   42  22  44 VRB3      30.17F
ALBION         PTSUNNY   42  22  46 S3        30.17F
BLAIR          SUNNY     42  22  46 W6        30.19F
COLUMBUS *     MOSUNNY   43  21  42 W8        30.21F
TEKAMAH        SUNNY     46  23  40 NW15G29   30.20F
$$

NEZ050>053-065>068-078-088>093-261800-
SOUTHEAST NEBRASKA

CITY           SKY/WX    TMP DP  RH WIND       PRES   REMARKS
LINCOLN        SUNNY     45  23  42 W5        30.23F
OMAHA EPPLEY   MOSUNNY   44  24  45 N9        30.21F
FALLS CITY     SUNNY     44  28  53 NW12      30.21F
PLATTSMOUTH    SUNNY     43  21  42 NW8       30.21F
$$

NEZ044-045-051>053-067-261800-
OMAHA AREA

CITY           SKY/WX    TMP DP  RH WIND       PRES   REMARKS
OMAHA EPPLEY   MOSUNNY   44  24  45 N9        30.21F
BLAIR          SUNNY     42  22  46 W6        30.19F
OFFUTT AFB     SUNNY     44  22  41 NW12      30.20F
PLATTSMOUTH    SUNNY     43  21  42 NW8       30.21F
$$


USA.gov is the U.S. government's official web portal to all federal, state and local government web resources and services.